TimeEDT,TemperatureF,Dew PointF,Humidity,Sea Level PressureIn,VisibilityMPH,Wind Direction,Wind SpeedMPH,Gust SpeedMPH,PrecipitationIn,Events,Conditions,WindDirDegrees,DateUTC
12:51 AM,17.1,8.1,68,30.28,-9999.0,NW,11.5,18.4,N/A,,Unknown,320,2014-03-23 04:51:00
1:51 AM,16.0,7.0,68,30.31,-9999.0,NNW,8.1,-,N/A,,Unknown,330,2014-03-23 05:51:00
2:51 AM,15.1,8.1,74,30.33,-9999.0,NNW,8.1,-,N/A,,Unknown,330,2014-03-23 06:51:00
3:51 AM,15.1,8.1,74,30.32,-9999.0,NNW,5.8,-,N/A,,Unknown,330,2014-03-23 07:51:00
4:51 AM,15.1,8.1,74,30.31,-9999.0,NW,6.9,-,N/A,,Unknown,320,2014-03-23 08:51:00
5:51 AM,15.1,8.1,74,30.32,-9999.0,NW,5.8,-,N/A,,Unknown,320,2014-03-23 09:51:00
6:51 AM,16.0,8.1,71,30.34,-9999.0,NW,5.8,-,N/A,,Unknown,320,2014-03-23 10:51:00
7:51 AM,16.0,9.0,74,30.36,-9999.0,NW,6.9,-,N/A,,Unknown,320,2014-03-23 11:51:00
8:51 AM,18.0,10.0,71,30.36,-9999.0,NW,4.6,-,N/A,,Unknown,320,2014-03-23 12:51:00
9:51 AM,18.0,9.0,68,30.36,-9999.0,NW,6.9,-,N/A,,Unknown,320,2014-03-23 13:51:00
10:51 AM,19.9,10.0,65,30.37,-9999.0,NW,5.8,-,N/A,,Unknown,320,2014-03-23 14:51:00
11:51 AM,19.9,7.0,57,30.38,-9999.0,NW,5.8,-,N/A,,Unknown,310,2014-03-23 15:51:00
12:51 PM,19.9,7.0,57,30.38,-9999.0,NW,9.2,-,N/A,,Unknown,310,2014-03-23 16:51:00
1:51 PM,21.9,5.0,48,30.37,-9999.0,NW,8.1,-,N/A,,Unknown,310,2014-03-23 17:51:00
2:51 PM,23.0,6.1,48,30.35,-9999.0,NW,8.1,-,N/A,,Unknown,310,2014-03-23 18:51:00
3:51 PM,23.0,8.1,53,30.34,-9999.0,NW,5.8,-,N/A,,Unknown,310,2014-03-23 19:51:00
4:51 PM,23.0,9.0,55,30.33,-9999.0,NW,3.5,-,N/A,,Unknown,320,2014-03-23 20:51:00
5:51 PM,21.9,8.1,55,30.34,-9999.0,Calm,Calm,-,N/A,,Unknown,0,2014-03-23 21:51:00
6:51 PM,19.9,7.0,57,30.34,-9999.0,Calm,Calm,-,N/A,,Unknown,0,2014-03-23 22:51:00
7:51 PM,18.0,9.0,68,30.35,-9999.0,NE,5.8,-,N/A,,Unknown,50,2014-03-23 23:51:00
8:51 PM,18.0,10.0,71,30.36,-9999.0,ESE,5.8,-,N/A,,Unknown,110,2014-03-24 00:51:00
9:51 PM,17.1,10.0,74,30.37,-9999.0,East,5.8,-,N/A,,Unknown,80,2014-03-24 01:51:00
10:51 PM,17.1,10.9,77,30.37,-9999.0,SE,4.6,-,N/A,,Unknown,130,2014-03-24 02:51:00
11:51 PM,16.0,12.0,84,30.38,-9999.0,Calm,Calm,-,0.01,,Unknown,0,2014-03-24 03:51:00